Year,Month,Day,Hour,Minute,Value (Times are PST for temperature in C)
2022,05,25,12,11,14.30
2022,05,25,12,12,14.30
2022,05,25,12,13,14.30
2022,05,25,12,14,14.30
2022,05,25,12,15,14.20
2022,05,25,12,16,14.30
2022,05,25,12,17,14.30
2022,05,25,12,18,14.20
2022,05,25,12,19,14.20
2022,05,25,12,20,14.10
2022,05,25,12,21,14.10
2022,05,25,12,22,14.10
2022,05,25,12,23,14.10
2022,05,25,12,24,14.20
2022,05,25,12,25,14.10
2022,05,25,12,26,14.10
2022,05,25,12,27,14.00
2022,05,25,12,28,14.00
2022,05,25,12,29,14.00
2022,05,25,12,30,13.90
2022,05,25,12,31,13.80
2022,05,25,12,32,13.90
2022,05,25,12,33,13.90
2022,05,25,12,34,14.00
2022,05,25,12,35,14.10
2022,05,25,12,36,14.20
2022,05,25,12,37,14.20
2022,05,25,12,38,14.20
2022,05,25,12,39,14.20
2022,05,25,12,40,14.30
2022,05,25,12,41,14.40
2022,05,25,12,42,14.40
2022,05,25,12,43,14.50
2022,05,25,12,44,14.60
2022,05,25,12,45,14.70
2022,05,25,12,46,14.80
2022,05,25,12,47,14.80
2022,05,25,12,48,14.80
2022,05,25,12,49,14.60
2022,05,25,12,50,14.50
2022,05,25,12,51,14.50
2022,05,25,12,52,14.50
2022,05,25,12,53,14.50
2022,05,25,12,54,14.40
2022,05,25,12,55,14.40
2022,05,25,12,56,14.40
2022,05,25,12,57,14.40
2022,05,25,12,58,14.50
2022,05,25,12,59,14.40
2022,05,25,13,00,14.30
2022,05,25,13,01,14.30
2022,05,25,13,02,14.20
2022,05,25,13,03,14.20
2022,05,25,13,04,14.30
2022,05,25,13,05,14.40
2022,05,25,13,06,14.40
2022,05,25,13,07,14.50
2022,05,25,13,08,14.50
2022,05,25,13,09,14.60
2022,05,25,13,10,14.60
2022,05,25,13,11,14.60
2022,05,25,13,12,14.70
2022,05,25,13,13,14.80
2022,05,25,13,14,14.70
2022,05,25,13,15,14.80
2022,05,25,13,16,14.80
2022,05,25,13,17,14.80
2022,05,25,13,18,14.70
2022,05,25,13,19,14.60
2022,05,25,13,20,14.60
2022,05,25,13,21,14.70
2022,05,25,13,22,14.80
2022,05,25,13,23,14.90
2022,05,25,13,24,15.00
2022,05,25,13,25,15.00
2022,05,25,13,26,15.00
2022,05,25,13,27,15.10
2022,05,25,13,28,15.20
2022,05,25,13,29,15.20
2022,05,25,13,30,15.30
2022,05,25,13,31,15.20
2022,05,25,13,32,15.20
2022,05,25,13,33,15.00
2022,05,25,13,34,15.00
2022,05,25,13,35,14.90
2022,05,25,13,36,14.90
2022,05,25,13,37,14.90
2022,05,25,13,38,14.90
2022,05,25,13,39,14.90
2022,05,25,13,40,14.90
2022,05,25,13,41,14.90
2022,05,25,13,42,14.90
2022,05,25,13,43,14.90
2022,05,25,13,44,15.00
2022,05,25,13,45,15.10
2022,05,25,13,46,15.10
2022,05,25,13,47,15.10
2022,05,25,13,48,15.10
2022,05,25,13,49,15.00
2022,05,25,13,50,15.00
2022,05,25,13,51,15.00
2022,05,25,13,52,15.00
2022,05,25,13,53,15.00
2022,05,25,13,54,14.90
2022,05,25,13,55,14.80
2022,05,25,13,56,14.80
2022,05,25,13,57,14.70
2022,05,25,13,58,14.70
2022,05,25,13,59,14.70
2022,05,25,14,00,14.70
2022,05,25,14,01,14.70
2022,05,25,14,02,14.70
2022,05,25,14,03,14.70
2022,05,25,14,04,14.70
2022,05,25,14,05,14.70
2022,05,25,14,06,14.70
2022,05,25,14,07,14.70
2022,05,25,14,08,14.70
2022,05,25,14,09,14.70
2022,05,25,14,10,14.70
2022,05,25,14,11,14.80
2022,05,25,14,12,14.80
2022,05,25,14,13,14.80
2022,05,25,14,14,14.90
2022,05,25,14,15,15.10
2022,05,25,14,16,15.20
2022,05,25,14,17,15.30
2022,05,25,14,18,15.40
2022,05,25,14,19,15.50
2022,05,25,14,20,15.60
2022,05,25,14,21,15.70
2022,05,25,14,22,15.80
2022,05,25,14,23,15.90
2022,05,25,14,24,15.90
2022,05,25,14,25,15.90
2022,05,25,14,26,15.90
2022,05,25,14,27,15.90
2022,05,25,14,28,15.80
2022,05,25,14,29,15.90
2022,05,25,14,30,15.90
2022,05,25,14,31,16.00
2022,05,25,14,32,16.10
2022,05,25,14,33,16.10
2022,05,25,14,34,16.10
2022,05,25,14,35,16.10
2022,05,25,14,36,16.10
2022,05,25,14,37,16.10
2022,05,25,14,38,16.10
2022,05,25,14,39,16.10
2022,05,25,14,40,16.10
2022,05,25,14,41,16.10
2022,05,25,14,42,16.20
2022,05,25,14,43,16.20
2022,05,25,14,44,16.20
2022,05,25,14,45,16.20
2022,05,25,14,46,16.10
2022,05,25,14,47,16.00
2022,05,25,14,48,16.00
2022,05,25,14,49,16.00
2022,05,25,14,50,15.90
2022,05,25,14,51,16.00
2022,05,25,14,52,16.00
2022,05,25,14,53,16.10
2022,05,25,14,54,16.20
2022,05,25,14,55,16.20
2022,05,25,14,56,16.30
2022,05,25,14,57,16.30
2022,05,25,14,58,16.20
2022,05,25,14,59,16.30
2022,05,25,15,00,16.30
2022,05,25,15,01,16.40
2022,05,25,15,02,16.30
2022,05,25,15,03,16.20
2022,05,25,15,04,16.10
2022,05,25,15,05,15.90
2022,05,25,15,06,15.90
2022,05,25,15,07,15.80
2022,05,25,15,08,15.90
2022,05,25,15,09,16.00
2022,05,25,15,10,16.20
2022,05,25,15,11,16.20
2022,05,25,15,12,16.30
2022,05,25,15,13,16.30
2022,05,25,15,14,16.30
2022,05,25,15,15,16.30
2022,05,25,15,16,16.20
2022,05,25,15,17,16.10
2022,05,25,15,18,16.10
2022,05,25,15,19,16.10
2022,05,25,15,20,16.20
2022,05,25,15,21,16.20
2022,05,25,15,22,16.10
2022,05,25,15,23,16.10
2022,05,25,15,24,16.10
2022,05,25,15,25,16.10
2022,05,25,15,26,16.20
2022,05,25,15,27,16.20
2022,05,25,15,28,16.20
2022,05,25,15,29,16.20
2022,05,25,15,30,16.30
2022,05,25,15,31,16.30
2022,05,25,15,32,16.30
2022,05,25,15,33,16.30
2022,05,25,15,34,16.40
2022,05,25,15,35,16.40
2022,05,25,15,36,16.40
2022,05,25,15,37,16.40
2022,05,25,15,38,16.40
2022,05,25,15,39,16.40
2022,05,25,15,40,16.30
2022,05,25,15,41,16.30
2022,05,25,15,42,16.30
2022,05,25,15,43,16.40
2022,05,25,15,44,16.40
2022,05,25,15,45,16.30
2022,05,25,15,46,16.30
2022,05,25,15,47,16.30
2022,05,25,15,48,16.30
2022,05,25,15,49,16.30
2022,05,25,15,50,16.30
2022,05,25,15,51,16.30
2022,05,25,15,52,16.30
2022,05,25,15,53,16.20
2022,05,25,15,54,16.20
2022,05,25,15,55,16.20
2022,05,25,15,56,16.20
2022,05,25,15,57,16.20
2022,05,25,15,58,16.20
2022,05,25,15,59,16.20
2022,05,25,16,00,16.20
2022,05,25,16,01,16.10
2022,05,25,16,02,16.10
2022,05,25,16,03,16.10
2022,05,25,16,04,16.00
2022,05,25,16,05,16.00
2022,05,25,16,06,15.90
2022,05,25,16,07,15.80
2022,05,25,16,08,15.80
2022,05,25,16,09,15.80
2022,05,25,16,10,15.80
2022,05,25,16,11,15.80
2022,05,25,16,12,15.80
2022,05,25,16,13,15.80
2022,05,25,16,14,15.80
2022,05,25,16,15,15.90
2022,05,25,16,16,15.90
2022,05,25,16,17,16.00
2022,05,25,16,18,16.10
2022,05,25,16,19,16.20
2022,05,25,16,20,16.20
2022,05,25,16,21,16.30
2022,05,25,16,22,16.30
2022,05,25,16,23,16.30
2022,05,25,16,24,16.40
2022,05,25,16,25,16.50
2022,05,25,16,26,16.50
2022,05,25,16,27,16.60
2022,05,25,16,28,16.70
2022,05,25,16,29,16.70
2022,05,25,16,30,16.80
2022,05,25,16,31,16.70
2022,05,25,16,32,16.60
2022,05,25,16,33,16.60
2022,05,25,16,34,16.60
2022,05,25,16,35,16.70
2022,05,25,16,36,16.70
2022,05,25,16,37,16.70
2022,05,25,16,38,16.70
2022,05,25,16,39,16.70
2022,05,25,16,40,16.80
2022,05,25,16,41,16.80
2022,05,25,16,42,16.80
2022,05,25,16,43,16.80
2022,05,25,16,44,16.90
2022,05,25,16,45,16.90
2022,05,25,16,46,16.90
2022,05,25,16,47,16.80
2022,05,25,16,48,16.70
2022,05,25,16,49,16.70
2022,05,25,16,50,16.70
2022,05,25,16,51,16.70
2022,05,25,16,52,16.60
2022,05,25,16,53,16.50
2022,05,25,16,54,16.50
2022,05,25,16,55,16.40
2022,05,25,16,56,16.30
2022,05,25,16,57,16.30
2022,05,25,16,58,16.30
2022,05,25,16,59,16.30
2022,05,25,17,00,16.30
2022,05,25,17,01,16.40
2022,05,25,17,02,16.50
2022,05,25,17,03,16.60
2022,05,25,17,04,16.60
2022,05,25,17,05,16.60
2022,05,25,17,06,16.70
2022,05,25,17,07,16.70
2022,05,25,17,08,16.70
2022,05,25,17,09,16.70
2022,05,25,17,10,16.70
2022,05,25,17,11,16.70
2022,05,25,17,12,16.70
2022,05,25,17,13,16.70
2022,05,25,17,14,16.70
2022,05,25,17,15,16.70
2022,05,25,17,16,16.70
2022,05,25,17,17,16.70
2022,05,25,17,18,16.70
2022,05,25,17,19,16.70
2022,05,25,17,20,16.80
2022,05,25,17,21,16.70
2022,05,25,17,22,16.70
2022,05,25,17,23,16.60
2022,05,25,17,24,16.50
2022,05,25,17,25,16.50
2022,05,25,17,26,16.50
2022,05,25,17,27,16.40
2022,05,25,17,28,16.30
2022,05,25,17,29,16.30
2022,05,25,17,30,16.30
2022,05,25,17,31,16.30
2022,05,25,17,32,16.30
2022,05,25,17,33,16.40
2022,05,25,17,34,16.40
2022,05,25,17,35,16.30
2022,05,25,17,36,16.30
2022,05,25,17,37,16.20
2022,05,25,17,38,16.20
2022,05,25,17,39,16.20
2022,05,25,17,40,16.20
2022,05,25,17,41,16.20
2022,05,25,17,42,16.20
2022,05,25,17,43,16.30
2022,05,25,17,44,16.30
2022,05,25,17,45,16.40
2022,05,25,17,46,16.50
2022,05,25,17,47,16.50
2022,05,25,17,48,16.50
2022,05,25,17,49,16.50
2022,05,25,17,50,16.50
2022,05,25,17,51,16.50
2022,05,25,17,52,16.50
2022,05,25,17,53,16.40
2022,05,25,17,54,16.40
2022,05,25,17,55,16.40
2022,05,25,17,56,16.40
2022,05,25,17,57,16.40
2022,05,25,17,58,16.30
2022,05,25,17,59,16.30
2022,05,25,18,00,16.40
2022,05,25,18,01,16.40
2022,05,25,18,02,16.40
2022,05,25,18,03,16.30
2022,05,25,18,04,16.30
2022,05,25,18,05,16.20
2022,05,25,18,06,16.10
2022,05,25,18,07,16.10
2022,05,25,18,08,16.10
2022,05,25,18,09,16.10
2022,05,25,18,10,16.10
2022,05,25,18,11,16.10
2022,05,25,18,12,16.00
2022,05,25,18,13,15.90
2022,05,25,18,14,15.90
2022,05,25,18,15,15.90
2022,05,25,18,16,15.90
2022,05,25,18,17,15.90
2022,05,25,18,18,15.90
2022,05,25,18,19,15.90
2022,05,25,18,20,15.90
2022,05,25,18,21,15.90
2022,05,25,18,22,15.90
2022,05,25,18,23,15.90
2022,05,25,18,24,15.90
2022,05,25,18,25,15.90
2022,05,25,18,26,15.90
2022,05,25,18,27,15.80
2022,05,25,18,28,15.90
2022,05,25,18,29,15.90
2022,05,25,18,30,15.90
2022,05,25,18,31,15.90
2022,05,25,18,32,16.00
2022,05,25,18,33,16.00
2022,05,25,18,34,16.00
2022,05,25,18,35,16.00
2022,05,25,18,36,15.90
2022,05,25,18,37,15.90
2022,05,25,18,38,15.80
2022,05,25,18,39,15.80
2022,05,25,18,40,15.70
2022,05,25,18,41,15.70
2022,05,25,18,42,15.70
2022,05,25,18,43,15.70
2022,05,25,18,44,15.60
2022,05,25,18,45,15.60
2022,05,25,18,46,15.50
2022,05,25,18,47,15.50
2022,05,25,18,48,15.40
2022,05,25,18,49,15.30
2022,05,25,18,50,15.30
2022,05,25,18,51,15.30
2022,05,25,18,52,15.30
2022,05,25,18,53,15.30
2022,05,25,18,54,15.30
2022,05,25,18,55,15.20
2022,05,25,18,56,15.20
2022,05,25,18,57,15.20
2022,05,25,18,58,15.20
2022,05,25,18,59,15.20
2022,05,25,19,00,15.20
2022,05,25,19,01,15.20
2022,05,25,19,02,15.20
2022,05,25,19,03,15.20
2022,05,25,19,04,15.20
2022,05,25,19,05,15.20
2022,05,25,19,06,15.20
2022,05,25,19,07,15.20
2022,05,25,19,08,15.20
2022,05,25,19,09,15.20
2022,05,25,19,10,15.20
2022,05,25,19,11,15.20
2022,05,25,19,12,15.20
2022,05,25,19,13,15.20
2022,05,25,19,14,15.20
2022,05,25,19,15,15.20
2022,05,25,19,16,15.20
